AirNav   ProFlight Series 2 Aviation Headset
 
 1126 users online  

2IS3 Jackson Field Airport
Elmira, Illinois, USA

GOING TO ELMIRA?


FAA INFORMATION EFFECTIVE 13 AUGUST 2020

Location

FAA Identifier: 2IS3
Lat/Long: 41-10-18.1330N 089-48-24.3710W
41-10.302217N 089-48.406183W
41.1717036,-89.8067697
(estimated)
Elevation: 760 ft. / 232 m (estimated)
Variation: 01E (1985)
From city: 1 mile SE of ELMIRA, IL
Time zone: UTC -5 (UTC -6 during Standard Time)
Zip code: 61483

Airport Operations

Airport use: Private use. Permission required prior to landing
Activation date: 12/1983
Control tower: no
ARTCC: CHICAGO CENTER
FSS: KANKAKEE FLIGHT SERVICE STATION
Attendance: DYLGT
Wind indicator: yes
Segmented circle: no

Nearby radio navigation aids

VOR radial/distance  VOR name  Freq  Var
BDFr274/9.9BRADFORD VORTAC114.7000E
PIAr355/29.5PEORIA VORTAC115.2004E
GBGr061/31.7GALESBURG VOR/DME109.8003E
MZVr098/38.6MOLINE VOR/DME114.4005E

Airport Services

Runway Information

Runway 9/27

Dimensions: 1900 x 80 ft. / 579 x 24 m
Surface: turf
RUNWAY 9  RUNWAY 27
Traffic pattern: leftleft

Airport Ownership and Management from official FAA records

Ownership: Privately-owned
Owner: DAVID W. JACKSON
13553 COUNTY HIGHWAY 23, BOX 338
TOULON, IL 61483-0338
Manager: DAVID W. JACKSON
13553 COUNTY HIGHWAY 23, BOX 338
TOULON, IL 61483-0338

Airport Operational Statistics

Aircraft based on the field: 2
Single engine airplanes: 2
    

Additional Remarks

FOR CD CTC CHICAGO ARTCC AT 630-906-8921.

Instrument Procedures

There are no published instrument procedures at 2IS3.

Some nearby airports with instrument procedures:

KEZI - Kewanee Municipal Airport (7 nm W)
C75 - Marshall County Airport (21 nm SE)
3MY - Mount Hawley Auxiliary Airport (24 nm S)
KPIA - General Downing - Peoria International Airport (31 nm S)
KVYS - Illinois Valley Regional Airport-Walter A Duncan Field (31 nm E)
 
Loc | Ops | Rwys | IFR | FBO | Links
Com | Nav | Svcs | Stats | Notes
Area around 2IS3 (Jackson Field Airport)
 
Road maps at: MapQuest Bing Google
 
Aerial photo
No photo
 
Sectional chart

 
Airport distance calculator
Flying to Jackson Field Airport? Find the distance to fly.

From to 2IS3

Sunrise and sunset
Times for 13-Aug-2020
 Local
(UTC-5)
 Zulu
(UTC)
Morning civil twilight05:3910:39
Sunrise06:0911:09
Sunset19:5900:59
Evening civil twilight20:2901:29

Current date and time
Zulu (UTC)  13-Aug-2020 13:08:47
Local (UTC-5)  13-Aug-2020 08:08:47
 
METAR
KC75 
21nm SE 
131255Z AUTO 00000KT 10SM CLR 19/18 A3010 RMK AO2 T01870177
KPIA 
31nm S 
131254Z 07006KT 10SM CLR 22/18 A3009 RMK AO2 SLP183 T02170183
KVYS 
31nm E 
131255Z AUTO 04005KT 10SM CLR 20/18 A3011 RMK AO2 T01970181
KGBG 
32nm SW 
131255Z AUTO 11003KT 10SM CLR 22/18 A3010 RMK AO2 T02170175
KSQI 
35nm N 
131256Z 08005KT 10SM CLR 19/18 A3012 RMK AO2 SLP062 T01940183
KMLI 
36nm NW 
131252Z 09003KT 10SM CLR 20/17 A3009 RMK AO2 SLP187 T02000172
TAF
KPIA 
31nm S 
131120Z 1312/1412 06004KT P6SM SCT250 FM131600 10006KT P6SM FEW030 SCT250
KMLI 
36nm NW 
131120Z 1312/1412 12005KT P6SM SCT035 BKN200 FM131600 13007KT P6SM SCT040 SCT250 FM140100 09005KT P6SM SCT250
NOTAMs
Click for the latest NOTAMs
NOTAMs are issued by the DoD/FAA and will open in a separate window not controlled by AirNav.

 

 
 

Would you like to see your business listed on this page?

 If your business provides an interesting product or service to pilots, flight crews, aircraft, or users of the Jackson Field Airport, you should consider listing it here.  To start the listing process, click on the button below
 
Add a business
 

Other Pages about Jackson Field Airport

Update a link
 
Copyright © AirNav, LLC. All rights reserved. Privacy Policy  Contact